LB9CG Weather Reports


time (UTC)temp
C
wind
direction
speed
KPH
gust
KPH
rain 1hr
cm
rain 24hr
cm
rain mn
cm
humidity
%
barometer
mb
20260507132016 8 248 3.2 9.7 0.00 0.00 0.00 72 1015.0
20260507131016 8 270 3.2 11.3 0.00 0.00 0.00 74 1015.1
20260507130016 8 203 4.8 14.5 0.00 0.00 0.00 70 1015.0
20260507125016 8 293 3.2 9.7 0.00 0.00 0.00 69 1015.1
20260507124016 8 225 1.6 6.4 0.00 0.00 0.00 70 1015.0
20260507123016 8 293 4.8 11.3 0.00 0.00 0.00 68 1015.0
20260507122016 8 180 3.2 8.0 0.00 0.00 0.00 72 1014.9
20260507121016 8 270 3.2 8.0 0.00 0.00 0.00 75 1014.9
20260507120015 7 293 3.2 8.0 0.00 0.00 0.00 81 1014.9
20260507115015 6 293 3.2 8.0 0.00 0.00 0.00 84 1014.9
20260507114016 7 293 6.4 14.5 0.00 0.00 0.00 83 1014.8
20260507113016 6 0 3.2 11.3 0.00 0.00 0.00 82 1014.8
20260507112016 6 293 1.6 4.8 0.00 0.00 0.00 82 1014.7
20260507111055 6 293 1.6 4.8 0.00 0.00 0.00 83 1014.6
20260507110016 6 293 1.6 8.0 0.00 0.00 0.00 81 1014.5
20260507105015 6 293 3.2 8.0 0.00 0.00 0.00 85 1014.4
20260507104016 6 293 3.2 11.3 0.00 0.00 0.00 83 1014.3
20260507103015 5 135 1.6 3.2 0.00 0.00 0.00 84 1014.3
20260507102016 5 225 1.6 4.8 0.00 0.00 0.00 85 1014.2
20260507101015 5 135 1.6 3.2 0.00 0.00 0.00 85 1014.1
20260507100036 5 135 1.6 9.7 0.00 0.00 0.00 84 1014.3
20260507095036 6 225 3.2 12.9 0.00 0.00 0.00 82 1014.2
20260507094016 6 158 3.2 8.0 0.00 0.00 0.00 84 1014.0
20260507093015 5 180 4.8 8.0 0.00 0.00 0.00 84 1014.0
20260507092016 5 135 3.2 8.0 0.00 0.00 0.00 86 1013.9
20260507091036 5 158 1.6 6.4 0.00 0.00 0.00 89 1013.9
20260507090015 4 248 1.6 3.2 0.00 0.00 0.00 90 1013.9
20260507085015 3 0.0 3.2 0.00 0.00 0.00 90 1013.9
20260507084015 3 135 1.6 3.2 0.00 0.00 0.00 89 1013.8
20260507083015 3 203 1.6 4.8 0.00 0.00 0.00 89 1013.8
20260507082015 3 180 1.6 8.0 0.00 0.00 0.00 89 1013.7
20260507081017 3 158 1.6 4.8 0.00 0.00 0.00 89 1013.7
20260507080017 3 225 3.2 9.7 0.00 0.00 0.00 88 1013.6
20260507075037 3 135 4.8 14.5 0.00 0.00 0.00 85 1013.6
20260507074015 5 135 3.2 9.7 0.00 0.00 0.00 83 1013.4
20260507073017 5 248 3.2 8.0 0.00 0.00 0.00 83 1013.3
20260507072017 4 135 6.4 12.9 0.00 0.00 0.00 81 1013.2
20260507071017 5 135 6.4 16.1 0.00 0.00 0.00 82 1013.1
20260507070037 5 135 4.8 11.3 0.00 0.00 0.00 81 1013.1
20260507065017 5 135 4.8 11.3 0.00 0.00 0.00 82 1012.9
20260507064037 4 135 4.8 11.3 0.00 0.00 0.00 84 1012.8
20260507063017 4 135 6.4 14.5 0.00 0.00 0.00 83 1012.8
20260507062017 5 135 3.2 6.4 0.00 0.00 0.00 84 1012.8
20260507061017 3 225 1.6 6.4 0.00 0.00 0.00 86 1012.8
20260507060017 3 135 3.2 8.0 0.00 0.00 0.00 86 1012.7
20260507055017 4 135 4.8 9.7 0.00 0.00 0.00 84 1012.7
20260507054037 4 135 8.0 12.9 0.00 0.00 0.00 84 1012.7
20260507053017 4 135 8.0 14.5 0.00 0.00 0.00 86 1012.7
20260507052017 3 158 1.6 4.8 0.00 0.00 0.00 91 1012.6
20260507051017 2 225 1.6 6.4 0.00 0.00 0.00 91 1012.6
20260507050017 2 225 1.6 3.2 0.00 0.00 0.00 91 1012.4
20260507045037 2 248 1.6 6.4 0.00 0.00 0.00 91 1012.4
20260507044016 2 225 1.6 4.8 0.00 0.00 0.00 91 1012.3
20260507043017 2 225 1.6 6.4 0.00 0.00 0.00 91 1012.3
20260507042017 2 0.0 1.6 0.00 0.00 0.00 91 1012.2
20260507041037 2 225 1.6 3.2 0.00 0.00 0.00 92 1012.1
20260507040037 2 203 1.6 6.4 0.00 0.00 0.00 92 1012.0
20260507035017 2 293 1.6 6.4 0.00 0.00 0.00 93 1012.0
20260507034017 2 225 1.6 4.8 0.00 0.00 0.00 93 1012.0
20260507033017 2 225 1.6 6.4 0.00 0.00 0.00 94 1011.9
20260507032017 2 0.0 1.6 0.00 0.00 0.00 94 1011.7
20260507031017 2 0.0 0.0 0.00 0.00 0.00 94 1011.7
20260507030016 2 0.0 1.6 0.00 0.00 0.00 94 1011.6
20260507025017 2 248 1.6 6.4 0.00 0.00 0.00 94 1011.6
20260507024016 1 0.0 4.8 0.00 0.00 0.00 94 1011.6
20260507023017 1 0.0 3.2 0.00 0.00 0.00 94 1011.6
20260507022017 1 225 1.6 3.2 0.00 0.00 0.00 94 1011.6
20260507021037 1 0.0 3.2 0.00 0.00 0.00 94 1011.5
20260507020017 1 0.0 1.6 0.00 0.00 0.00 94 1011.4
20260507015017 1 225 1.6 4.8 0.00 0.00 0.00 94 1011.4
20260507014036 1 225 1.6 6.4 0.00 0.00 0.00 94 1011.4
20260507013037 1 248 1.6 4.8 0.00 0.00 0.00 94 1011.3
20260507012016 1 248 1.6 6.4 0.00 0.00 0.00 94 1011.3
20260507011016 1 248 1.6 4.8 0.00 0.00 0.00 94 1011.3
20260507010016 1 225 1.6 6.4 0.00 0.00 0.00 94 1011.3
20260507005016 1 293 1.6 3.2 0.00 0.00 0.00 94 1011.3
20260507004016 1 225 1.6 4.8 0.00 0.00 0.00 94 1011.3
20260507003016 1 158 3.2 11.3 0.00 0.00 0.00 93 1011.4
20260507002016 2 158 4.8 12.9 0.00 0.00 0.00 94 1011.2
20260507001016 1 225 3.2 8.0 0.00 0.00 0.00 94 1011.3
20260507000016 1 225 3.2 6.4 0.00 0.00 0.00 94 1011.2
20260506235036 1 135 1.6 4.8 0.00 0.00 0.00 94 1011.1
20260506234016 1 225 1.6 4.8 0.00 0.00 0.00 94 1011.1
20260506233016 1 158 1.6 4.8 0.00 0.00 0.00 94 1011.0
20260506232017 1 0.0 1.6 0.00 0.00 0.00 93 1010.9
20260506231016 1 0.0 3.2 0.00 0.00 0.00 93 1010.9
20260506230016 1 0.0 1.6 0.00 0.00 0.00 92 1011.0
20260506225016 1 270 1.6 6.4 0.00 0.00 0.00 90 1011.1
20260506224016 2 270 3.2 6.4 0.00 0.00 0.00 91 1011.1
20260506223016 2 180 1.6 9.7 0.00 0.00 0.00 91 1010.9
20260506222016 2 225 1.6 6.4 0.00 0.00 0.00 91 1010.7
20260506221016 2 0.0 3.2 0.00 0.00 0.00 92 1010.6
20260506220036 2 0.0 1.6 0.00 0.00 0.00 92 1010.6
20260506215017 1 225 1.6 4.8 0.00 0.00 0.00 92 1010.5
20260506214037 1 0.0 1.6 0.00 0.00 0.00 91 1010.4
20260506213016 1 0.0 1.6 0.00 0.00 0.00 91 1010.4
20260506212016 1 0.0 1.6 0.00 0.00 0.00 90 1010.4
20260506211016 1 0.0 1.6 0.00 0.00 0.00 90 1010.3
20260506210016 1 0.0 1.6 0.00 0.00 0.00 89 1010.2
20260506205016 1 0.0 1.6 0.00 0.00 0.00 89 1010.2
20260506204016 1 0.0 1.6 0.00 0.00 0.00 87 1010.2
20260506203036 2 0.0 3.2 0.00 0.00 0.00 87 1010.2
20260506202017 2 0.0 1.6 0.00 0.00 0.00 85 1010.2
20260506201016 2 180 1.6 4.8 0.00 0.00 0.00 85 1010.2
20260506200016 2 158 1.6 6.4 0.00 0.00 0.00 86 1010.1
20260506195016 2 135 4.8 16.1 0.00 0.00 0.00 86 1010.2
20260506194016 2 0.0 3.2 0.00 0.00 0.00 86 1010.1
20260506193056 2 225 3.2 8.0 0.00 0.00 0.00 85 1010.0
20260506192016 3 225 3.2 9.7 0.00 0.00 0.00 83 1010.1
20260506191036 3 248 4.8 14.5 0.00 0.00 0.00 81 1010.0
20260506190016 4 248 4.8 14.5 0.00 0.00 0.00 79 1010.1
20260506185036 5 203 4.8 9.7 0.00 0.00 0.00 79 1009.8
20260506184016 5 0.0 1.6 0.00 0.00 0.00 78 1009.7
20260506183016 5 248 1.6 4.8 0.00 0.00 0.00 77 1009.6
20260506182016 5 0.0 4.8 0.00 0.00 0.00 75 1009.7
20260506181036 6 0.0 3.2 0.00 0.00 0.00 73 1009.7
20260506180016 6 158 1.6 4.8 0.00 0.00 0.00 75 1009.6
20260506175016 5 225 3.2 9.7 0.00 0.00 0.00 76 1009.7
20260506174016 5 225 1.6 6.4 0.00 0.00 0.00 76 1009.7
20260506173016 6 225 1.6 9.7 0.00 0.00 0.00 74 1009.7
20260506172016 6 225 1.6 9.7 0.00 0.00 0.00 75 1009.6
20260506171017 6 225 4.8 12.9 0.00 0.00 0.00 74 1009.6
20260506170016 6 225 4.8 17.7 0.00 0.00 0.00 73 1009.4
20260506165016 6 225 3.2 8.0 0.00 0.00 0.00 76 1009.4
20260506164016 6 135 4.8 11.3 0.00 0.00 0.00 77 1009.5
20260506163016 6 158 6.4 11.3 0.00 0.00 0.00 75 1009.4
20260506162016 6 158 3.2 8.0 0.00 0.00 0.00 74 1009.5
20260506161036 7 225 4.8 9.7 0.00 0.00 0.00 73 1009.5
20260506160016 7 203 4.8 11.3 0.00 0.00 0.00 74 1009.5
20260506155016 6 135 1.6 4.8 0.00 0.00 0.00 77 1009.5
20260506154016 6 225 4.8 12.9 0.00 0.00 0.00 74 1009.4
20260506153035 7 293 4.8 12.9 0.00 0.00 0.00 73 1009.4
20260506152016 6 225 3.2 12.9 0.00 0.00 0.00 76 1009.3
20260506151016 6 113 3.2 8.0 0.00 0.00 0.00 80 1009.3
20260506150016 6 225 1.6 9.7 0.00 0.00 0.00 81 1009.3
20260506145036 5 158 3.2 8.0 0.00 0.00 0.00 83 1009.4
20260506144016 5 225 3.2 11.3 0.00 0.00 0.00 86 1009.4
20260506143015 5 270 3.2 12.9 0.00 0.00 0.00 86 1009.4
20260506142016 5 293 4.8 12.9 0.00 0.00 0.00 86 1009.4
20260506141015 5 0.0 1.6 0.00 0.00 0.00 90 1009.4
20260506140015 4 90 8.0 12.9 0.00 0.00 0.00 88 1009.4
20260506135016 5 90 4.8 9.7 0.00 0.00 0.00 89 1009.2
20260506134016 5 293 1.6 4.8 0.00 0.00 0.00 89 1009.3
20260506133015 5 23 3.2 8.0 0.00 0.00 0.00 92 1009.4